Theta_e
286 287 288 288 289 289 290 290 290 290 290 290 289 289 289 288 288 288 289 288 289 289 289 289 289 289 289 289 289 289 289 289 289 289 289 289 290 290 290 290 291 292 293 293 293 293 293 293 294 295 296 296 296 296 296 297 297 297 297 298 298 299 299 299 299 300 300 300 302
286 286 286 287 287 288 289 289 290 290 290 291 290 289 288 288 288 288 288 288 289 289 289 289 289 288 288 288 288 288 288 288 289 289 289 289 289 289 289 290 291 291 292 293 292 293 293 292 293 294 295 295 295 295 295 295 296 296 296 296 297 298 298 299 298 298 299 299 300
286 286 286 286 286 287 288 289 289 289 288 289 289 288 288 288 288 288 288 288 288 288 288 289 288 288 287 287 288 288 288 288 288 288 288 288 288 289 289 289 290 291 291 291 291 292 292 291 292 293 294 294 294 294 294 294 295 295 295 295 296 297 297 298 298 298 299 299 299
285 285 286 286 286 287 287 289 288 288 288 288 287 287 287 287 288 288 288 287 287 287 288 288 288 288 287 287 287 288 288 288 287 287 288 288 288 288 288 289 289 290 290 291 290 290 290 290 291 292 292 292 292 292 293 293 294 294 294 294 295 296 296 297 297 298 299 299 298
285 286 286 286 287 287 287 287 287 287 287 287 287 287 287 287 287 287 287 287 287 288 288 287 287 287 287 287 287 287 287 287 287 287 287 287 287 287 287 288 289 289 290 290 290 290 289 289 290 291 291 291 292 292 292 292 293 293 293 294 294 295 296 296 297 298 298 298 299
286 286 286 286 286 286 286 286 286 286 287 286 286 286 286 287 287 287 287 287 287 287 286 286 286 286 286 286 286 286 286 286 286 286 286 286 287 287 287 287 288 289 289 289 289 289 289 288 290 291 291 291 291 291 291 291 292 292 292 293 293 294 294 295 296 297 297 297 297
284 285 285 284 284 285 285 285 286 285 285 285 285 285 286 287 286 286 286 287 286 286 286 286 286 286 286 286 285 285 285 286 285 285 285 286 286 286 287 287 287 288 288 288 288 288 288 288 289 290 290 290 291 290 290 290 291 291 291 292 292 293 294 294 295 296 296 296 296
283 283 283 283 283 283 284 284 284 284 285 285 285 285 285 286 286 286 286 286 286 286 286 287 286 286 285 285 285 285 285 285 285 285 285 285 285 286 286 286 287 287 287 288 288 288 288 288 289 289 289 289 290 290 289 289 290 290 290 291 292 292 293 293 294 294 295 294 294
283 283 283 283 283 283 283 283 283 283 284 284 285 285 285 285 285 285 285 286 286 286 286 286 285 285 285 285 285 285 285 285 285 285 285 285 285 286 286 286 286 287 287 287 287 287 287 288 288 288 288 289 289 289 289 289 289 289 290 290 290 291 292 292 292 293 294 294 294
284 284 284 284 284 284 284 283 283 283 283 284 284 285 285 285 285 285 285 286 285 285 285 285 285 285 285 285 285 285 286 286 286 286 286 286 286 286 286 287 286 287 287 287 287 287 287 287 288 288 288 288 288 288 288 288 288 289 289 290 290 290 290 291 291 292 292 293 293
284 284 284 284 284 284 284 284 284 284 284 284 284 284 284 285 285 285 285 285 285 284 285 285 285 286 286 286 286 287 287 287 287 287 286 286 286 286 286 287 287 287 287 287 287 287 287 287 287 287 287 287 287 287 287 287 288 288 289 289 289 289 289 289 290 291 291 292 292
284 284 284 284 284 284 284 284 285 285 285 285 285 285 284 285 285 285 285 285 285 286 286 286 287 287 287 288 287 287 287 287 287 287 287 287 287 287 287 287 287 287 287 287 287 287 288 287 287 287 286 286 287 287 287 287 287 288 288 288 288 288 289 289 289 290 291 291 291
284 284 284 284 284 284 285 285 285 285 286 286 286 286 286 286 286 286 286 286 287 288 288 288 288 288 289 288 288 288 288 288 288 288 287 287 288 288 288 288 288 288 288 288 288 288 288 288 287 287 286 286 287 287 287 287 287 287 287 288 288 288 288 288 289 289 290 290 291
284 284 284 284 285 285 285 285 286 286 286 286 287 287 288 288 288 288 288 288 288 288 289 289 289 289 289 289 288 288 288 288 288 288 288 288 288 288 288 288 288 288 288 288 288 288 288 288 288 287 287 287 287 287 287 287 287 287 287 287 287 288 288 288 288 289 289 289 290
284 284 284 284 285 285 286 286 286 287 287 287 287 288 288 288 288 289 288 288 288 288 288 288 288 288 288 288 288 288 288 288 288 287 287 287 288 288 288 288 288 288 288 289 289 288 288 288 288 288 288 287 287 287 287 287 287 287 288 288 288 288 288 288 288 288 288 289 289
284 284 284 284 285 285 286 286 287 287 287 287 287 287 288 288 288 288 288 287 287 287 287 287 287 288 288 288 288 288 288 288 288 288 287 288 288 288 288 288 288 288 288 288 288 289 289 289 289 288 288 288 288 288 288 288 288 288 288 288 288 288 288 288 288 288 288 288 289
284 284 284 284 284 285 285 286 286 287 287 287 287 287 287 287 287 287 287 287 287 287 287 287 287 288 288 288 288 288 288 288 288 288 288 288 288 288 288 288 288 288 288 288 288 288 288 289 289 289 289 288 288 288 288 288 288 288 288 288 288 288 288 288 288 288 288 288 288
283 284 284 284 284 284 285 285 285 285 286 286 286 286 286 286 286 286 287 287 287 286 286 286 287 287 287 287 288 288 288 288 288 288 288 288 288 288 288 288 288 288 288 288 288 288 288 288 289 289 289 289 289 289 289 288 289 289 289 289 289 289 289 288 288 288 289 288 288
283 283 284 284 284 284 284 285 285 285 285 285 285 286 286 286 286 286 286 286 286 286 286 286 286 286 287 286 287 287 287 287 287 287 287 288 288 288 288 288 288 288 288 288 288 288 288 289 289 289 289 289 289 289 289 289 289 289 289 289 289 289 289 289 289 289 289 289 288
283 283 284 284 284 284 284 284 284 285 285 285 285 285 285 285 285 285 285 285 286 285 285 285 285 286 286 286 286 286 287 287 287 287 287 287 287 288 288 288 288 288 288 288 288 288 288 289 289 289 289 288 288 288 288 289 289 289 289 289 289 289 289 289 289 289 289 289 289
283 283 284 284 284 284 284 284 284 285 285 285 284 284 284 285 285 285 284 285 285 285 285 285 285 285 285 285 285 285 286 286 286 286 286 287 287 287 287 288 288 288 288 288 288 289 289 289 289 289 289 288 288 288 288 288 288 288 289 289 289 289 289 289 289 289 289 289 289
283 284 284 284 284 284 284 284 284 284 284 284 284 284 284 284 284 284 284 284 284 284 284 284 284 284 284 284 284 284 285 285 285 286 286 286 286 286 287 287 287 287 287 288 288 288 288 288 288 289 289 289 288 288 288 288 288 288 288 289 289 289 289 289 289 289 289 289 289
283 283 284 284 284 284 284 284 284 284 283 283 283 283 283 283 283 283 284 284 284 284 283 284 284 284 284 284 284 284 284 284 284 285 285 285 285 285 286 286 286 286 286 287 287 287 288 288 288 288 288 289 289 288 288 288 288 289 289 289 289 290 290 290 290 290 290 290 290
283 283 284 284 284 284 284 283 283 283 283 283 283 283 283 283 283 283 283 283 283 283 283 283 283 283 283 284 283 283 283 283 283 284 284 284 284 285 285 285 285 286 286 286 287 288 288 288 288 288 288 288 288 289 289 289 289 290 290 290 290 290 290 290 289 289 289 289 289
283 283 283 283 283 283 283 282 282 282 282 282 282 282 282 282 282 282 282 282 282 282 282 282 282 283 283 283 283 283 283 283 283 283 283 283 283 284 284 284 285 285 286 286 287 288 288 288 288 288 288 289 289 289 290 290 290 290 290 290 290 290 290 289 290 289 289 289 289
282 282 282 282 282 282 282 282 281 281 281 281 281 281 281 281 281 281 281 281 281 282 282 282 282 282 282 282 282 282 282 282 282 282 282 282 282 283 283 283 284 284 285 286 287 287 288 288 288 288 288 289 289 289 289 289 290 290 290 290 290 290 289 289 289 289 289 289 290
282 282 281 282 281 281 281 281 281 281 281 281 281 280 281 281 281 281 281 281 281 281 281 282 281 282 282 282 281 281 281 282 282 282 282 281 281 282 282 282 283 284 284 286 286 287 287 288 288 288 288 288 288 289 289 289 290 290 290 290 290 290 289 289 289 289 289 289 289
281 281 281 281 280 280 280 280 280 280 280 280 280 280 280 281 280 280 280 280 281 281 281 281 281 281 281 281 281 281 281 281 281 281 281 281 281 281 281 282 282 283 284 285 285 286 286 287 287 287 287 287 287 288 288 288 289 289 289 289 289 289 289 289 289 289 289 289 289
280 280 280 280 280 280 280 280 280 280 280 280 280 280 280 280 280 280 280 280 280 280 280 281 281 281 281 281 281 281 281 281 281 281 281 281 281 281 281 281 281 282 283 285 285 285 285 286 286 286 287 287 287 287 287 287 287 288 288 288 289 289 288 289 289 289 289 289 289
280 280 280 279 279 279 279 279 279 279 279 280 280 280 280 280 280 280 280 280 280 280 281 281 281 281 280 280 280 280 280 280 281 281 281 280 280 280 281 281 281 282 283 284 285 285 285 285 286 286 286 286 286 286 286 286 286 287 287 288 288 288 288 288 289 289 289 289 289
279 279 279 279 279 279 279 279 279 279 279 280 279 279 279 279 279 280 280 280 280 281 281 281 281 280 280 280 280 280 280 280 281 281 280 280 280 281 281 281 281 282 283 284 284 285 285 285 285 285 285 286 285 285 285 285 286 286 286 287 287 288 288 289 289 289 289 289 289
279 279 279 279 278 278 279 279 279 279 279 279 279 279 279 279 280 280 280 281 281 280 280 280 280 280 280 280 280 280 280 280 280 280 280 280 280 280 281 281 281 282 283 284 284 284 285 285 285 285 285 285 285 285 285 285 285 285 286 286 286 287 288 288 288 289 289 289 289
278 278 278 278 278 278 278 279 279 279 279 279 279 279 279 279 280 280 280 280 280 280 280 279 279 279 279 279 279 279 279 279 279 280 280 280 280 280 280 281 281 282 282 283 284 284 284 285 285 285 285 285 285 285 285 285 285 285 285 285 286 286 287 287 288 288 288 289 289
278 278 278 278 278 278 278 278 278 278 278 278 278 278 279 279 279 279 279 279 279 279 279 279 279 279 279 279 279 279 279 279 279 279 280 280 280 280 280 280 281 282 283 283 283 284 284 284 284 285 285 285 284 285 285 285 285 285 285 285 285 286 286 286 287 287 288 288 288
278 278 278 277 278 278 278 278 278 278 278 278 278 278 278 279 279 279 279 279 279 279 279 279 279 279 279 279 279 279 279 279 279 279 279 280 280 280 280 280 280 281 283 283 283 284 284 284 284 284 284 284 284 284 284 284 284 285 285 285 285 285 285 286 286 286 287 287 287
278 277 277 277 277 277 277 277 277 277 277 277 277 278 278 278 278 278 279 279 279 278 278 278 278 278 278 278 278 279 279 279 279 279 279 279 279 279 279 279 280 281 282 283 283 283 284 284 284 284 284 284 284 284 284 284 284 284 285 285 285 285 285 286 286 286 286 287 287
277 277 277 277 277 277 277 277 277 277 277 277 277 277 277 278 278 278 279 279 278 278 278 278 278 278 278 278 278 278 279 279 279 279 279 279 279 279 279 279 279 280 281 282 283 283 283 284 284 284 284 283 283 283 283 283 284 284 284 284 285 286 286 286 286 287 287 287 287
277 277 277 276 276 277 277 277 277 277 276 277 277 277 278 278 278 278 278 278 278 277 277 277 277 277 278 278 278 278 279 279 279 279 279 279 279 279 279 279 279 280 281 282 283 283 283 284 284 284 284 283 283 283 283 283 283 283 284 284 285 285 286 287 287 287 287 287 287
277 277 277 276 276 276 276 277 276 277 277 277 277 277 277 277 277 278 278 278 278 277 277 277 277 277 278 278 278 278 278 279 279 279 279 279 279 280 279 279 279 280 281 282 283 283 284 284 284 284 284 283 283 283 283 283 283 283 283 283 284 285 285 286 287 287 288 287 288
277 277 277 276 276 277 277 277 277 277 277 277 277 277 277 277 277 278 278 278 278 278 277 277 277 278 278 278 278 278 278 279 279 279 279 279 280 280 280 280 280 280 281 282 283 283 283 284 284 284 284 283 283 283 283 283 282 282 283 283 283 284 284 285 286 287 287 287 288
277 277 277 277 277 277 277 277 277 277 277 277 277 277 277 277 277 277 278 278 278 278 278 278 278 278 278 278 278 278 278 278 279 279 279 279 280 280 280 280 280 280 280 281 282 283 283 284 284 284 284 283 283 283 283 283 282 282 282 283 283 283 284 284 285 286 286 287 287
Wind_Speed
5 5 4 4 4 3 4 4 4 4 4 4 4 5 5 5 5 5 4 4 4 4 4 4 4 3 3 3 4 4 4 4 5 5 5 6 6 7 7 7 7 6 6 5 5 4 3 3 2 2 2 2 2 2 2 2 2 2 3 3 4 4 5 6 6 6 6 6 5
5 5 4 3 3 3 3 3 4 4 4 4 4 5 5 4 5 5 5 5 5 4 4 4 4 3 4 4 5 5 5 5 5 5 5 6 6 7 7 6 7 6 6 6 5 4 3 3 2 2 2 2 2 2 2 2 2 2 3 4 4 4 4 5 5 6 6 6 5
6 5 4 4 4 4 4 4 5 5 5 5 5 4 4 4 4 4 5 5 4 4 4 3 3 4 4 5 5 5 5 5 5 5 5 6 6 6 6 6 6 6 6 6 5 5 4 3 3 3 2 2 2 2 2 2 2 2 3 4 4 4 4 5 5 5 5 5 5
6 5 5 5 6 6 6 5 6 7 7 6 5 4 4 4 4 4 4 4 3 4 4 4 4 4 4 4 5 5 5 6 6 6 6 6 6 7 7 6 7 7 7 7 6 6 5 4 3 3 3 3 3 3 3 3 2 2 2 3 3 3 4 4 4 4 5 5 5
6 5 5 6 7 7 7 6 7 7 7 5 4 4 4 4 4 4 4 3 4 5 5 5 4 4 4 4 5 5 6 6 6 6 6 6 7 7 7 7 7 7 7 7 7 6 6 5 3 3 3 3 3 3 3 3 3 3 3 3 3 3 4 4 4 4 4 5 4
6 6 6 6 6 6 6 5 7 7 6 5 5 5 6 5 4 5 5 5 6 5 5 4 3 3 4 4 5 6 6 6 6 6 6 7 7 7 7 7 7 7 7 7 7 7 6 5 4 4 4 4 5 5 4 4 4 4 4 4 4 4 4 4 4 4 5 5 6
5 6 6 7 6 6 6 6 6 5 5 4 5 7 7 7 7 7 7 7 6 5 4 3 3 4 4 5 5 6 6 6 6 6 7 7 7 7 7 8 8 8 8 8 8 7 7 5 5 4 4 4 4 5 5 5 5 5 5 5 4 4 4 4 4 4 5 7 8
4 5 5 6 6 6 6 6 5 5 4 4 6 7 8 8 9 9 9 8 7 6 5 4 4 5 5 6 6 6 6 7 7 7 7 7 7 8 8 8 8 8 8 8 8 8 7 6 5 5 5 4 4 5 5 6 6 6 6 6 5 4 4 4 4 4 5 7 8
4 5 5 5 5 5 5 5 5 4 5 5 7 7 8 8 8 8 8 8 7 6 5 5 6 7 7 7 7 7 7 7 7 7 7 7 8 8 8 7 8 8 8 8 8 9 8 6 5 5 5 5 5 5 6 6 7 8 7 6 5 5 5 5 5 5 6 7 8
5 5 4 4 5 5 5 5 4 4 5 6 7 7 8 8 8 7 7 6 6 6 6 6 7 8 8 8 8 8 7 7 7 7 8 8 8 8 8 8 8 8 8 8 8 8 8 6 6 6 6 5 7 7 7 7 8 9 8 6 5 6 6 5 6 6 6 7 8
4 4 4 4 5 5 4 4 4 4 4 5 7 7 7 7 7 7 6 6 6 7 7 7 8 9 9 9 9 9 8 8 8 8 8 9 9 9 9 9 9 9 9 9 7 7 7 6 7 8 8 7 8 8 8 8 9 9 9 7 7 7 7 7 7 6 6 7 8
4 4 4 4 4 4 4 4 4 4 5 6 7 7 7 7 7 7 7 6 7 8 8 8 9 9 10 9 9 9 9 9 9 9 10 10 11 11 11 10 10 10 10 10 8 7 7 7 8 9 9 9 8 7 8 9 9 10 9 8 8 8 8 8 8 7 6 6 8
4 4 4 4 4 4 4 4 4 5 6 7 7 7 7 7 7 7 7 8 9 9 9 9 9 10 10 10 10 10 10 10 10 11 11 12 12 12 12 12 12 12 11 10 9 8 8 9 9 10 10 10 8 8 8 9 10 10 10 10 10 9 9 9 9 8 7 7 8
4 4 4 5 5 5 5 5 5 6 6 7 7 7 7 8 8 8 8 9 10 10 10 10 9 9 10 10 11 11 11 11 12 12 13 13 13 13 13 13 13 13 12 11 10 10 10 10 11 11 11 11 10 10 9 10 10 10 10 11 11 11 11 10 9 9 8 8 9
4 5 5 5 5 6 6 7 7 7 7 8 8 8 9 9 9 9 9 10 10 10 10 9 9 10 10 11 11 12 12 12 13 14 14 15 15 14 14 14 14 14 13 12 11 11 12 12 12 12 12 12 11 11 10 10 11 11 11 11 12 12 11 11 10 9 9 9 9
5 6 6 6 7 7 7 7 7 8 8 9 9 9 10 10 10 10 10 10 10 10 10 10 10 10 10 11 12 12 12 13 13 14 15 15 15 15 15 15 15 14 14 13 13 12 12 12 12 12 12 12 12 12 11 11 11 12 12 12 12 12 12 11 11 10 10 10 10
6 6 6 7 7 8 8 8 8 8 9 10 10 10 10 10 9 10 10 11 10 10 11 12 11 11 11 12 11 11 12 12 13 13 14 15 15 16 16 15 15 15 14 14 13 13 13 13 12 12 12 12 12 12 12 12 12 12 12 13 13 13 12 12 11 11 11 11 11
6 7 7 7 8 8 9 9 9 9 10 10 11 10 10 10 10 10 11 11 11 12 12 13 12 12 12 12 12 11 11 12 13 13 14 15 15 16 16 16 15 15 14 14 14 14 14 14 13 12 12 12 12 12 12 12 12 12 12 13 13 13 12 12 12 11 11 11 11
6 7 7 8 8 9 9 10 10 11 11 11 11 11 11 11 11 11 11 12 12 12 13 13 13 12 12 13 13 12 12 12 13 14 14 14 15 15 15 15 15 15 14 14 14 14 14 14 14 13 13 12 12 12 12 12 12 12 12 13 13 13 13 12 12 11 11 11 11
7 7 8 8 9 10 10 11 11 11 11 11 11 12 12 12 12 12 12 12 12 12 13 13 13 14 14 14 14 14 13 12 13 14 15 14 15 15 15 15 15 15 15 14 14 14 14 14 14 14 14 13 13 13 13 13 13 13 12 12 12 12 12 12 12 12 11 11 11
7 8 8 9 10 10 11 11 12 12 12 12 12 12 12 12 12 12 13 13 13 13 13 13 14 15 15 15 15 15 15 13 14 15 16 16 16 16 16 16 16 16 15 15 15 15 15 15 14 14 14 14 14 14 13 13 13 12 12 11 11 12 12 12 12 12 12 12 11
8 8 9 10 10 11 12 12 12 12 12 12 13 13 13 13 13 13 13 13 13 13 13 14 14 15 15 16 16 16 16 15 15 16 16 16 17 17 17 17 17 17 16 16 16 16 16 16 15 15 15 14 14 14 14 13 13 12 12 12 12 12 12 12 12 12 12 12 12
9 9 10 10 11 12 12 12 12 12 13 13 13 13 14 14 14 14 14 13 13 13 14 14 14 14 15 15 16 16 16 16 17 17 17 17 18 18 18 17 17 18 18 17 17 16 16 15 15 15 15 14 15 15 14 14 13 13 13 14 14 14 13 13 13 13 13 13 13
10 10 10 10 11 12 13 13 13 13 13 14 14 14 14 15 14 14 14 14 14 14 14 13 13 14 15 15 16 16 16 17 18 18 19 18 18 18 18 17 17 17 17 16 16 16 15 14 13 13 14 14 14 14 14 14 14 15 15 15 16 15 15 14 14 13 13 13 13
10 11 11 11 12 12 13 13 13 14 14 15 15 15 15 15 15 14 14 15 15 15 15 15 15 14 14 15 16 16 17 17 18 18 19 19 18 17 17 16 15 15 14 14 18 21 21 18 15 13 13 13 14 14 14 15 15 15 15 16 16 16 15 15 15 14 14 14 13
11 11 11 12 12 13 13 13 14 14 15 15 16 16 16 16 15 15 15 15 16 16 16 16 15 15 15 15 16 16 16 16 16 17 17 17 18 17 16 15 14 13 13 15 20 22 23 23 21 18 15 14 14 15 15 15 15 14 14 14 14 15 15 15 15 15 15 14 15
10 11 11 12 12 13 14 14 14 15 15 16 16 17 17 16 15 15 16 16 16 16 16 15 15 15 15 14 16 16 16 15 15 16 17 17 17 18 17 16 14 13 13 17 22 24 25 25 24 22 19 15 15 14 14 14 14 13 13 13 14 14 14 15 15 15 15 15 16
10 11 11 12 13 14 14 14 15 16 16 17 17 17 17 17 17 17 17 17 16 16 15 14 13 13 12 12 14 16 16 16 16 16 16 17 18 18 18 17 15 15 17 21 25 26 27 27 27 26 23 18 15 14 14 14 14 14 13 13 14 14 15 15 14 14 15 16 16
10 11 12 13 14 14 15 15 16 16 17 17 17 17 17 17 17 17 17 17 17 16 15 13 12 11 12 13 15 16 17 18 17 17 17 18 19 19 18 18 17 18 21 25 27 28 28 28 28 28 26 23 17 14 13 14 14 13 13 13 13 14 14 14 14 14 14 15 15
10 11 12 13 14 15 15 16 16 17 17 16 17 17 18 18 18 18 17 17 17 16 15 14 13 14 15 16 17 17 17 18 17 17 18 18 19 19 19 19 18 19 21 25 27 28 29 29 28 28 27 26 20 16 14 14 14 13 13 12 13 14 15 15 16 16 15 14 15
10 11 12 13 14 15 16 16 17 17 17 16 17 17 18 18 18 18 18 17 17 17 16 16 17 18 18 18 18 18 19 19 18 18 18 19 20 20 20 20 20 20 22 25 27 29 29 29 29 28 27 26 21 17 14 14 14 14 13 13 14 14 15 15 15 16 16 15 15
10 11 12 14 15 16 16 17 17 17 17 18 18 18 18 18 18 18 18 17 17 18 18 18 19 19 20 20 19 20 20 19 19 19 19 19 20 21 21 21 21 21 22 26 28 29 29 29 29 28 28 26 22 18 16 15 16 15 15 15 17 17 17 15 14 14 15 15 15
11 12 13 14 15 16 17 17 17 17 17 18 18 18 18 19 18 18 18 17 17 18 18 19 19 20 20 21 21 21 21 20 20 20 20 20 21 21 22 21 20 20 22 26 28 29 29 29 28 28 27 26 22 18 16 16 15 15 15 16 17 18 18 18 16 15 15 15 15
11 12 14 15 16 17 17 17 17 17 17 17 18 18 18 18 19 19 18 17 16 17 17 18 19 19 19 19 20 20 20 20 20 20 21 21 22 22 22 20 17 19 22 26 28 29 29 29 29 29 28 27 21 18 16 17 16 16 16 17 18 18 19 19 19 18 17 17 16
12 13 14 16 16 17 17 17 17 17 17 17 18 18 18 18 19 19 18 18 18 18 18 18 18 18 18 18 19 20 20 21 21 21 21 21 21 22 23 22 20 22 25 29 30 30 31 31 30 30 29 26 20 16 16 17 17 17 18 18 19 19 20 20 20 19 19 19 17
12 13 14 16 17 17 17 17 17 17 17 18 18 18 18 18 18 18 18 18 18 19 19 19 19 19 19 20 19 19 20 21 21 21 21 21 22 23 23 24 23 25 27 30 31 31 31 31 31 31 29 24 18 15 15 15 15 16 18 19 19 19 20 20 20 19 19 19 19
13 13 14 16 17 17 18 17 17 17 17 18 18 18 18 19 18 18 18 17 18 19 19 19 19 20 20 20 20 20 21 21 22 22 22 22 22 23 24 24 24 25 26 28 30 31 32 32 32 31 28 22 17 15 14 14 13 14 16 18 18 18 18 17 18 18 19 20 20
13 14 14 16 17 17 17 17 17 17 18 18 18 18 18 18 18 18 17 17 17 18 19 20 20 20 20 20 21 21 22 22 22 22 23 23 23 23 24 25 24 24 24 26 29 30 31 31 31 30 27 21 17 15 14 13 13 14 15 15 15 16 16 14 14 15 17 19 21
14 14 15 16 16 17 17 18 17 17 18 18 19 19 19 18 17 17 17 17 17 18 19 20 20 21 21 21 21 22 22 22 22 22 23 23 23 23 24 25 24 24 24 25 28 30 30 31 31 30 28 22 18 15 13 13 14 14 15 14 14 14 14 13 12 12 14 17 21
14 14 15 15 16 16 17 18 18 18 17 18 19 19 19 18 18 17 17 17 17 17 18 19 21 22 21 21 21 22 23 23 23 22 22 23 23 25 26 25 25 24 25 26 28 30 31 31 31 31 28 22 17 14 13 12 13 14 15 14 13 13 13 12 12 11 12 13 17
14 14 14 15 15 16 17 18 18 18 18 18 19 19 18 17 18 18 17 16 17 18 17 18 20 22 22 21 20 21 22 24 24 23 23 23 23 24 25 24 24 24 24 25 27 29 30 31 31 31 28 22 17 14 12 12 13 14 15 15 13 12 11 11 11 11 11 12 13
Wind_Direction
248 243 238 236 236 237 239 242 237 232 227 223 223 221 219 214 218 222 221 215 217 219 220 219 218 221 224 226 227 233 242 251 260 265 270 275 278 281 284 286 285 281 276 269 265 260 256 249 246 246 245 240 249 257 261 267 290 304 310 311 309 306 303 301 296 292 289 286 286
272 268 266 265 265 264 264 265 260 252 244 236 230 226 222 218 222 226 227 222 222 222 222 223 220 220 225 229 226 228 234 243 251 257 262 267 271 275 278 280 278 273 266 260 257 254 249 242 239 243 248 249 255 260 261 254 267 291 302 303 303 302 300 297 291 287 284 281 280
290 294 296 294 287 281 276 273 269 262 255 250 244 237 231 227 229 230 231 230 228 225 224 227 225 224 225 232 232 231 232 237 243 249 254 259 264 268 271 273 271 266 259 252 248 246 242 235 231 236 244 254 254 256 255 251 248 266 284 291 295 296 296 292 289 286 284 282 279
292 293 292 290 284 279 276 277 276 272 268 263 260 253 246 241 240 240 241 241 236 232 230 229 230 228 227 231 239 241 241 240 240 243 247 251 255 259 261 263 262 259 254 247 244 242 239 232 229 230 236 242 247 249 249 251 249 254 265 276 282 286 287 287 287 286 285 283 279
293 290 286 284 283 281 281 282 284 284 283 284 285 281 272 261 255 254 254 255 249 243 237 231 232 233 234 235 242 247 249 247 243 243 244 248 250 252 253 253 252 250 248 244 241 238 236 232 233 233 233 233 239 242 243 243 248 255 262 267 269 273 276 280 281 281 281 281 281
295 294 292 289 287 286 286 285 284 286 290 299 299 295 290 283 278 275 272 269 266 262 258 248 245 245 245 243 244 247 249 250 246 244 244 247 249 250 250 249 245 243 242 240 238 236 234 231 239 243 243 243 247 246 240 233 242 253 261 267 263 263 265 268 272 275 277 278 279
290 293 294 293 291 289 287 286 286 287 290 295 292 288 287 288 291 290 288 287 289 289 285 275 263 256 252 249 248 248 249 251 250 248 246 247 249 249 247 246 243 241 239 238 237 236 233 229 238 245 249 247 252 249 242 233 238 246 255 261 257 254 253 256 262 268 272 274 275
291 290 289 289 289 287 286 286 289 291 292 290 284 282 282 286 290 293 296 299 297 294 289 285 275 267 261 257 256 255 254 255 256 253 250 249 250 249 248 246 244 242 240 237 236 236 234 230 234 239 243 245 249 246 241 233 237 242 248 251 251 248 245 246 252 259 265 269 272
298 294 291 290 288 286 284 284 284 285 285 284 280 279 280 283 286 290 292 293 290 288 287 287 282 278 275 272 269 265 262 259 258 257 254 250 249 249 248 246 244 243 242 238 236 235 234 233 236 237 237 237 241 241 237 230 234 238 242 245 247 246 244 242 245 251 258 265 269
298 296 296 296 291 288 286 286 281 276 274 275 276 277 278 280 282 282 282 280 282 284 285 283 285 286 286 284 281 277 273 268 266 263 260 255 251 248 247 246 243 243 243 240 237 234 233 233 235 237 237 234 237 237 235 229 230 234 238 241 241 243 244 242 242 245 251 258 264
291 291 292 291 290 290 291 292 287 281 276 275 276 277 277 278 278 276 275 275 279 280 280 279 282 285 286 285 284 282 279 277 276 274 270 266 261 256 253 251 248 247 246 243 239 236 234 234 236 237 237 235 233 234 234 229 229 232 235 238 237 239 241 242 240 242 246 251 258
288 288 288 286 287 290 293 293 291 288 286 283 281 280 278 277 274 274 276 280 281 281 281 281 283 284 284 284 283 283 282 281 280 279 277 275 273 270 267 264 260 257 254 250 245 242 241 239 238 237 237 235 232 230 230 228 228 231 234 237 236 237 239 240 239 239 242 245 253
289 291 292 291 293 295 298 298 297 295 293 291 289 287 285 284 281 281 284 287 287 288 289 290 288 287 286 286 286 285 285 284 282 281 280 279 279 278 276 274 271 268 264 260 254 250 247 245 240 239 237 236 233 229 226 224 226 229 233 235 236 237 238 238 236 236 238 240 247
295 296 298 299 303 306 309 309 308 307 306 303 301 299 298 297 296 296 296 296 296 296 296 296 294 292 290 289 289 288 287 285 284 282 281 280 280 279 278 277 275 272 270 266 260 255 251 249 244 242 239 238 236 232 226 222 223 226 229 232 234 236 236 236 233 233 234 237 243
311 311 312 315 318 320 320 320 318 316 315 312 310 309 308 306 306 305 304 302 301 300 299 298 296 293 291 290 289 288 287 286 284 283 282 281 280 278 277 276 274 272 270 268 264 258 254 251 248 245 243 241 239 235 230 225 224 225 227 230 232 233 234 233 231 229 231 233 239
325 325 326 327 327 325 324 321 319 317 315 312 311 310 308 307 306 306 304 302 301 300 298 296 294 293 292 290 289 288 287 286 284 283 282 281 280 279 278 276 275 273 271 268 266 262 258 254 251 248 246 245 243 241 237 232 229 228 229 229 230 231 232 231 228 228 228 230 234
328 327 326 326 324 321 318 315 313 312 310 308 307 306 305 303 303 302 301 300 300 299 297 296 295 294 293 292 290 289 288 287 285 284 283 282 281 281 280 278 277 275 272 270 267 265 262 259 255 252 249 248 246 244 242 239 236 233 232 231 231 231 230 229 227 226 227 228 232
323 322 321 319 316 313 310 308 307 306 305 305 304 303 302 301 301 300 299 299 298 298 297 296 295 294 293 293 292 290 289 288 286 285 284 283 283 282 281 280 279 277 275 272 269 267 265 263 260 257 254 251 249 247 245 243 241 238 235 233 232 230 229 227 226 226 226 228 232
317 315 314 313 310 307 306 305 305 305 305 304 303 303 302 301 300 300 299 298 298 297 297 297 296 295 294 293 292 290 289 288 287 285 284 284 283 283 282 281 280 278 276 273 271 269 267 265 263 260 258 255 253 251 248 246 244 241 238 235 233 231 229 227 225 225 226 228 231
311 310 309 307 306 306 306 306 307 307 306 306 304 303 302 300 300 299 298 298 298 298 297 297 296 296 294 293 292 291 289 287 287 286 285 284 283 283 282 281 281 279 277 275 272 270 268 267 265 262 260 258 256 254 251 249 246 243 240 237 234 231 229 226 225 225 226 227 231
309 308 307 306 307 307 308 308 309 308 307 306 304 303 302 301 300 299 298 297 298 298 298 296 295 295 294 294 292 291 290 288 287 286 285 284 283 282 281 281 280 279 278 276 274 272 270 268 267 265 263 261 258 256 254 251 248 245 241 238 235 232 229 227 225 225 226 227 230
309 309 308 308 309 309 309 310 310 309 307 306 304 303 302 301 300 298 298 298 298 298 296 295 294 293 292 292 292 291 290 289 287 286 284 283 282 281 281 280 280 279 277 276 274 272 271 269 267 265 263 262 260 258 255 253 249 246 242 239 236 234 231 228 227 226 226 228 230
310 309 309 309 310 311 311 311 310 309 307 305 304 303 302 301 300 299 299 299 297 296 294 293 292 291 291 290 290 290 289 288 286 284 283 282 281 280 280 279 278 277 275 274 272 271 270 268 267 265 263 262 261 259 256 253 251 248 245 242 239 236 234 231 229 229 228 229 231
310 310 311 312 312 312 312 311 310 309 307 305 305 304 302 301 300 300 299 298 296 294 293 292 291 291 290 290 289 288 287 286 285 284 283 282 281 280 279 278 277 275 274 272 271 270 269 268 268 266 265 263 262 260 258 255 252 250 248 246 243 241 238 236 233 232 231 232 233
310 311 312 313 313 312 312 311 310 308 307 305 304 303 302 301 300 299 298 297 295 294 293 292 292 291 290 290 288 286 285 284 284 284 284 284 282 281 280 278 277 275 274 273 272 271 271 270 269 269 268 266 265 262 260 257 254 251 249 248 246 245 243 241 238 236 235 235 236
311 312 313 312 312 312 311 310 308 307 306 305 304 303 302 301 300 299 297 296 295 294 294 293 292 291 290 289 288 286 285 283 283 283 283 284 283 283 281 279 278 276 275 274 274 274 274 274 273 272 271 270 268 266 264 261 256 253 250 248 247 246 244 242 240 238 238 238 239
313 313 312 312 312 310 309 308 307 306 305 305 304 302 301 301 300 298 297 295 295 295 294 293 292 290 289 288 286 285 285 284 284 283 283 283 283 282 281 280 278 276 275 275 276 276 276 276 275 273 272 271 270 269 268 266 261 257 253 249 247 245 244 243 242 241 240 241 241
313 312 312 312 311 309 308 308 307 306 305 304 303 302 301 300 299 297 296 295 295 295 294 292 290 289 288 286 285 285 285 285 284 284 283 282 280 280 279 278 277 275 274 275 276 276 276 276 275 274 272 271 270 268 267 266 264 260 255 251 248 246 245 243 243 242 242 243 242
312 312 312 312 310 309 308 308 307 306 304 303 302 301 300 299 298 297 296 296 296 295 294 292 291 289 287 286 286 286 286 285 284 283 281 280 278 277 276 276 275 274 275 275 276 276 276 275 275 274 273 271 269 267 265 264 262 259 256 253 250 247 245 243 242 242 242 242 241
312 312 312 310 309 308 307 306 305 305 304 302 302 301 300 299 298 297 297 296 295 293 292 292 292 290 288 286 287 287 285 284 283 281 280 279 277 276 276 275 274 274 274 275 275 275 275 274 274 274 273 272 270 268 266 264 262 260 257 255 252 249 247 245 243 242 241 239 239
313 312 311 309 308 306 306 305 304 304 303 302 301 300 299 298 297 297 297 296 296 295 295 294 292 289 288 286 286 285 284 283 282 281 280 279 278 277 277 276 275 274 274 274 275 274 274 274 273 273 272 271 269 267 264 262 261 260 258 255 253 250 248 247 244 241 238 236 235
312 311 310 308 306 305 305 305 304 304 303 302 300 299 298 297 296 297 297 298 298 298 297 295 293 291 289 288 286 285 284 284 283 282 280 279 279 279 278 277 276 275 274 274 274 274 274 273 273 272 271 269 267 264 261 259 258 258 256 255 254 253 252 250 247 243 239 235 233
312 310 309 307 306 305 305 305 304 303 302 301 300 298 298 298 298 299 299 299 299 298 296 295 293 291 290 289 288 286 285 284 283 282 280 279 279 278 278 277 275 274 274 274 274 274 273 273 272 271 270 268 265 262 258 255 254 253 252 252 252 252 252 251 250 247 244 240 237
312 310 309 307 306 306 305 305 304 303 302 301 299 299 299 300 301 301 301 300 299 297 294 292 290 289 288 286 286 286 285 284 282 281 280 279 278 277 276 274 273 272 272 273 273 272 272 271 270 269 268 267 265 261 257 254 252 250 248 247 247 247 247 247 247 247 245 244 242
313 311 309 307 306 306 305 305 304 304 302 301 301 301 301 301 301 301 300 300 298 295 293 291 289 288 286 285 284 284 283 283 282 280 279 278 277 276 274 272 271 271 271 271 271 270 270 269 268 267 266 265 263 259 255 253 251 248 246 244 244 243 243 243 243 243 243 242 241
312 311 309 307 306 306 305 305 305 305 303 302 302 302 303 302 301 301 300 299 297 295 292 291 290 289 288 286 285 284 282 282 281 280 279 277 276 275 273 272 271 270 270 270 269 268 268 267 266 265 264 263 260 256 253 251 250 248 246 244 243 240 239 238 238 238 238 238 237
311 309 307 306 306 306 306 306 306 305 304 303 303 302 302 302 302 301 300 300 297 295 293 292 291 290 288 287 286 284 282 281 281 280 279 277 275 274 273 272 271 270 269 269 268 267 267 266 265 264 262 260 257 254 251 250 249 248 247 246 244 241 238 236 234 233 233 232 232
310 309 308 306 306 306 306 306 305 304 303 303 303 303 303 303 302 301 301 299 297 295 294 293 292 290 288 287 286 284 282 281 280 279 278 277 275 273 273 273 272 271 269 268 268 267 266 265 264 262 260 257 254 251 249 247 246 246 245 245 245 242 239 236 233 231 229 228 228
310 309 308 307 306 305 305 305 304 304 303 304 304 304 304 303 302 301 300 298 296 294 294 293 291 290 289 288 287 286 284 282 280 278 277 276 274 273 273 273 273 272 271 269 269 268 266 265 264 261 259 256 252 249 246 245 244 243 243 242 243 241 239 236 233 231 229 227 226
310 309 308 306 305 304 304 304 304 304 304 305 305 304 304 303 300 299 298 297 295 294 293 291 291 290 289 289 288 287 285 284 282 279 277 276 275 274 274 274 274 273 273 271 270 269 268 266 264 262 260 256 251 247 244 242 242 241 240 239 239 238 237 234 232 231 229 228 227
309 309 308 305 305 305 305 305 306 306 306 305 304 303 302 301 299 298 298 297 295 294 293 291 290 290 290 289 288 287 286 285 284 282 279 278 276 276 275 274 274 274 273 272 271 270 268 267 265 263 260 256 251 246 243 241 240 239 238 237 236 235 235 233 230 228 227 226 226